Theta_e
323 323 324 325 324 324 324 324 325 327 328 328 330 330 330 329 326 317 310 317 320 330 325 317 320 317 318 317 314 314 303 299 300 297 296 300 300 302 307 311 310 315 313 315 323
323 322 323 324 324 323 323 324 324 325 327 327 328 329 329 327 320 316 322 328 329 329 314 313 313 314 310 310 314 309 302 302 308 306 298 302 299 303 306 307 307 309 315 321 323
322 322 323 322 323 323 323 323 323 324 326 326 327 327 326 323 314 314 329 330 330 327 316 315 313 308 307 308 309 308 303 309 310 311 312 302 298 301 304 302 305 310 313 318 320
321 321 321 321 322 323 323 322 323 324 325 326 326 326 324 319 301 315 330 331 330 323 315 313 308 304 304 304 310 305 310 311 311 313 311 304 298 298 303 304 304 311 317 318 320
320 319 320 320 320 322 322 322 322 323 324 325 325 324 319 309 310 321 328 330 325 319 312 311 308 306 300 304 308 304 308 310 311 310 311 309 304 298 300 304 308 316 318 317 319
319 319 319 319 320 321 321 322 322 322 322 324 325 322 313 303 320 322 322 323 321 317 312 312 309 310 306 304 304 306 308 308 310 309 309 306 299 296 300 306 312 316 316 316 317
314 318 318 318 319 320 320 321 322 322 321 323 324 316 310 306 318 319 322 321 320 317 311 312 313 310 308 302 307 307 302 305 307 308 306 303 297 296 300 309 311 313 314 317 317
315 312 317 318 318 319 320 320 320 321 320 322 322 311 303 316 317 318 320 319 320 319 316 315 315 309 304 304 304 300 299 296 304 306 305 304 298 305 300 304 307 311 311 314 316
313 313 314 317 317 318 319 319 318 319 321 320 308 308 300 318 312 315 318 314 317 316 318 320 313 306 302 296 295 294 288 292 298 303 300 300 296 303 305 302 301 308 311 313 315
312 313 312 316 317 317 317 318 317 316 315 311 309 300 303 302 309 314 315 317 313 314 313 311 309 303 301 298 289 288 289 291 295 300 298 296 298 300 301 296 298 299 308 312 314
310 312 311 311 316 317 316 310 301 299 303 294 295 296 299 306 312 310 314 313 311 310 302 307 300 296 299 300 296 293 292 293 297 301 296 294 298 302 301 298 299 297 295 307 312
309 310 311 311 317 317 311 301 300 298 293 298 299 300 303 306 300 305 314 304 305 299 303 301 296 301 302 302 299 295 292 292 297 300 295 294 294 300 300 299 300 301 300 298 303
308 309 310 312 316 313 305 302 305 301 291 294 298 298 300 303 297 300 308 303 298 298 298 297 298 304 301 300 297 296 293 292 294 296 296 292 293 297 298 298 299 300 302 302 302
308 308 309 311 310 308 301 306 305 300 283 287 292 296 301 301 294 303 308 302 299 296 297 298 301 300 299 298 299 292 298 296 296 292 289 294 288 293 297 298 299 301 302 302 302
307 308 308 308 307 302 304 305 304 300 273 287 291 303 300 295 295 297 305 301 294 294 296 293 297 297 296 298 300 295 299 296 296 292 292 291 288 290 294 293 295 297 301 304 305
307 307 308 304 307 305 307 306 301 283 273 285 292 292 293 294 292 298 298 302 299 296 296 296 297 296 298 301 302 302 298 298 297 295 286 292 290 288 291 294 295 298 301 303 305
306 307 305 305 299 308 306 299 283 276 283 284 286 291 290 290 291 291 293 292 290 286 287 291 293 297 300 297 300 300 295 286 285 283 283 291 290 293 294 295 298 301 301 301 301
305 306 304 304 308 307 302 289 277 278 278 288 288 290 286 290 290 290 289 287 292 288 284 285 282 292 297 295 296 295 295 285 280 282 283 284 287 291 298 303 302 297 297 295 294
307 303 300 305 308 306 293 280 279 280 284 286 288 285 285 289 289 289 287 287 290 291 284 282 284 292 295 297 300 295 292 293 283 272 277 282 286 290 293 293 294 294 296 295 294
300 297 296 306 308 301 288 283 279 285 287 289 283 286 282 285 284 286 286 290 290 293 292 287 281 291 292 299 300 298 300 289 287 278 274 280 281 288 290 295 297 295 294 298 294
298 291 299 307 305 293 283 283 284 287 290 286 282 283 285 285 285 285 285 287 292 291 293 288 286 284 293 293 291 295 293 294 293 284 278 275 283 287 293 294 295 298 295 297 297
295 284 302 305 289 289 285 286 289 286 288 286 286 285 284 286 285 281 282 286 292 293 288 290 286 281 284 295 293 296 294 295 288 282 281 280 285 287 293 294 292 293 294 294 295
290 291 303 300 283 284 285 284 287 286 286 286 285 286 287 285 282 284 285 290 292 292 289 291 285 274 279 288 293 289 294 296 294 288 284 281 286 286 286 287 289 291 294 293 293
293 286 292 294 291 286 283 285 285 288 286 287 286 288 285 286 285 285 287 290 293 292 296 295 284 282 278 283 289 287 291 295 294 288 287 287 290 290 286 287 289 291 292 291 291
294 288 287 282 284 286 286 285 284 283 285 287 285 286 284 282 282 283 287 289 293 296 294 292 284 283 285 286 289 290 290 293 292 293 288 291 290 294 292 289 289 290 290 290 290
287 286 288 285 287 285 287 284 283 282 283 282 284 285 285 282 283 282 286 287 287 291 287 287 284 286 282 286 288 286 288 288 291 294 293 293 292 295 297 289 287 289 289 290 291
286 287 290 287 286 283 279 283 282 283 284 284 287 285 284 285 288 289 291 291 291 287 285 285 283 281 280 285 285 282 287 288 290 294 295 290 295 291 288 288 290 289 289 291 291
Wind_Speed
25 22 21 21 20 20 19 17 14 12 11 9 10 9 9 8 7 2 7 7 3 1 3 2 4 4 6 6 3 5 4 3 3 3 4 1 3 2 2 6 1 4 4 2 14
26 25 24 22 21 21 20 18 15 13 11 10 9 10 10 10 3 11 4 9 4 2 2 2 1 4 4 2 4 3 4 5 3 2 4 3 3 7 4 3 3 2 2 7 14
28 27 26 25 22 22 22 19 16 14 13 11 9 10 9 6 3 10 14 13 9 4 1 4 4 5 3 0 2 5 7 5 3 1 2 6 2 3 7 3 8 9 7 9 11
30 29 28 26 24 23 22 21 18 15 14 12 9 11 13 4 12 4 22 23 11 6 2 4 5 4 4 5 3 4 3 8 3 4 6 7 7 3 6 7 2 9 11 12 16
30 30 29 27 25 23 23 21 19 16 15 13 10 8 7 8 11 4 7 11 11 8 7 6 6 5 4 5 5 3 2 4 5 6 5 6 8 5 7 9 3 7 12 15 14
30 31 30 28 26 25 24 22 20 18 15 13 11 12 5 20 7 3 7 7 8 9 6 6 7 5 4 5 6 6 5 5 3 5 4 5 4 3 6 4 4 9 13 13 15
17 31 32 30 28 26 25 23 21 19 16 14 13 5 9 20 3 4 8 6 7 11 8 6 4 8 5 3 5 4 4 2 6 5 5 3 8 11 5 4 6 8 7 9 11
17 13 31 31 29 27 25 24 23 19 16 13 11 5 11 6 2 6 4 5 6 5 2 5 3 3 2 1 3 6 3 4 5 10 6 9 9 6 7 7 9 9 8 9 11
20 18 19 33 31 29 26 25 23 21 15 14 4 7 11 6 12 7 6 7 8 3 4 3 6 4 2 5 1 3 5 6 3 10 4 8 6 7 8 9 9 9 9 9 9
19 20 19 25 33 30 27 24 20 15 12 5 2 6 9 25 6 8 4 4 5 9 7 9 5 6 5 7 20 8 6 4 9 5 5 6 12 12 2 6 11 9 9 10 12
21 20 18 15 35 31 23 17 9 6 14 11 9 2 1 8 5 7 5 5 6 9 15 16 13 19 25 26 2 7 2 11 4 4 2 9 16 17 11 6 8 9 8 11 14
23 21 18 16 32 31 21 21 26 7 15 8 3 16 1 3 5 4 11 10 11 17 11 10 24 25 16 15 14 6 8 8 3 4 6 6 18 15 9 8 10 13 11 14 11
25 21 20 19 36 29 25 32 14 10 7 14 1 8 4 5 4 11 12 7 6 12 20 19 14 16 16 13 17 18 17 7 4 3 5 5 11 14 9 9 9 8 12 9 14
25 26 21 20 30 25 28 23 15 5 5 6 11 6 6 4 3 2 8 6 5 11 14 15 21 11 22 26 17 21 13 7 7 4 7 5 11 11 10 15 14 16 15 16 13
27 27 21 17 15 23 29 21 10 4 10 12 12 6 10 9 8 1 1 2 15 13 7 11 3 20 18 21 14 13 11 10 7 7 3 5 6 7 8 10 9 12 16 17 18
29 30 23 14 12 24 20 22 7 9 11 9 13 15 13 9 2 5 4 5 3 4 4 12 2 0 21 18 16 5 11 5 3 9 11 14 12 6 10 11 7 9 17 18 18
29 28 22 14 19 23 21 17 12 14 2 11 16 21 22 14 13 7 13 14 12 13 13 12 19 9 1 6 6 11 14 6 8 5 11 11 13 21 7 6 11 15 16 15 12
32 33 24 16 23 27 17 15 15 8 11 6 14 22 18 15 14 10 13 12 13 5 4 12 10 16 13 10 7 30 13 3 10 7 10 5 14 9 13 19 21 12 9 6 9
33 18 15 23 23 22 22 20 10 13 10 18 21 23 13 13 7 12 16 21 16 15 12 11 15 3 9 14 15 7 16 8 5 4 3 7 10 10 9 10 11 12 9 10 10
17 15 17 20 29 21 19 17 5 9 10 18 12 17 17 23 11 17 16 18 16 24 4 2 4 6 5 5 14 16 10 12 4 6 4 7 8 13 12 19 15 14 13 13 9
15 13 13 28 20 20 20 7 6 5 16 9 6 9 9 16 19 12 14 4 22 18 14 3 2 2 5 14 20 11 10 8 5 5 7 4 10 8 14 12 11 16 10 11 11
15 5 27 23 17 14 18 10 9 7 3 6 7 7 10 19 12 9 10 5 13 13 18 9 3 10 11 3 4 18 19 21 7 5 4 0 16 4 9 7 3 9 7 6 8
18 7 21 26 14 15 9 4 8 10 6 6 6 5 5 12 10 9 8 4 6 18 18 13 7 4 3 7 10 6 19 24 15 1 11 7 14 4 4 6 6 12 11 7 8
11 15 16 12 5 16 22 14 15 3 5 6 9 12 10 14 3 14 9 5 6 13 9 15 4 11 18 9 7 10 19 25 24 15 13 19 34 13 6 6 5 7 8 7 7
9 11 6 10 12 15 11 16 23 10 3 6 5 9 11 9 5 6 6 5 1 5 12 9 9 11 20 16 5 12 13 21 29 30 26 33 32 25 9 6 7 7 5 5 6
7 8 6 6 23 23 18 15 22 7 5 5 11 9 6 8 8 9 9 6 5 6 4 0 1 8 22 22 15 15 14 11 23 25 24 29 27 10 15 5 5 8 9 8 8
2 3 10 19 17 17 6 15 13 10 10 4 19 9 6 7 8 8 6 7 11 12 7 7 2 2 6 19 19 24 26 21 18 27 27 27 38 6 7 10 10 8 10 11 10
Wind_Direction
224 226 223 216 218 217 210 216 224 227 225 229 221 219 214 209 134 160 220 220 169 163 71 128 54 346 54 359 336 149 75 284 257 148 256 263 185 137 97 116 247 189 166 260 133
221 221 223 221 215 218 215 209 213 218 218 223 220 217 214 150 174 228 214 237 245 129 111 174 89 41 57 15 315 111 132 221 340 351 310 287 194 171 137 136 233 234 58 113 138
220 219 219 219 213 207 214 211 208 213 212 217 218 220 175 129 254 247 198 228 204 200 196 172 121 130 120 86 23 308 169 144 275 290 290 293 272 186 128 234 224 202 160 153 157
219 215 217 218 213 205 203 210 207 207 208 208 207 227 158 145 227 211 190 206 186 163 204 158 122 138 139 164 130 262 268 143 269 14 352 311 322 256 192 219 288 212 156 157 172
223 217 213 214 216 210 202 201 209 208 206 202 199 206 134 219 228 336 212 197 158 146 189 172 146 156 187 164 125 198 209 248 151 322 325 294 269 261 244 240 359 139 155 178 178
227 218 212 208 208 210 206 194 200 208 204 202 201 188 188 231 103 115 78 143 162 154 179 164 184 180 198 187 186 201 181 267 284 258 266 274 277 171 268 124 127 161 184 186 186
241 232 207 206 205 205 203 196 193 202 201 200 207 178 220 224 71 133 118 174 173 189 175 198 157 159 171 141 215 154 157 286 233 196 239 344 267 220 213 147 174 206 201 196 203
237 262 205 202 199 202 199 197 189 195 196 191 205 121 229 189 190 107 181 157 170 164 155 147 142 180 173 255 104 146 143 208 250 177 219 137 269 290 182 165 215 213 220 213 210
231 227 257 201 196 197 196 191 188 189 183 178 116 186 233 137 201 197 160 199 142 132 168 78 126 177 49 139 175 228 197 208 288 209 143 175 261 273 196 187 227 214 214 221 230
224 228 222 239 194 191 189 180 183 174 187 108 91 149 222 217 165 145 137 168 152 139 156 201 165 191 164 193 214 189 192 204 214 214 235 213 222 249 233 189 225 231 221 215 225
232 228 222 258 188 184 172 164 153 182 187 187 197 214 32 124 114 189 141 132 173 183 204 186 198 204 204 213 219 149 197 225 174 206 175 233 247 240 216 204 239 241 233 232 228
231 230 222 247 188 184 169 180 186 150 183 226 17 205 287 167 132 165 141 178 191 214 206 229 211 214 216 214 225 229 213 231 274 198 181 257 253 251 244 222 217 225 230 227 242
227 230 235 234 187 182 173 190 159 127 145 210 168 189 159 166 190 182 172 172 186 203 212 224 228 221 206 208 218 229 223 200 224 135 213 318 263 258 251 234 228 234 235 225 221
229 224 229 229 208 173 180 169 171 134 120 186 198 242 179 153 192 162 195 149 208 216 228 230 229 216 223 215 204 218 200 196 198 175 246 153 275 247 229 231 223 229 229 232 219
232 227 222 222 194 184 168 163 139 75 205 168 175 177 148 169 134 249 37 88 199 200 168 215 267 218 242 222 195 227 187 186 176 202 205 220 268 253 193 230 239 221 234 232 226
226 219 221 224 195 172 162 154 103 149 209 162 147 166 149 188 117 120 127 73 69 118 262 249 40 272 223 242 203 148 185 146 152 202 233 218 216 224 219 212 234 221 231 227 222
223 221 221 191 177 161 153 148 168 196 114 151 169 161 173 177 177 162 172 181 186 186 220 221 237 217 221 215 197 211 179 190 195 204 235 189 211 246 250 245 229 229 230 230 219
236 225 225 210 180 152 157 165 194 126 165 183 160 166 175 147 195 167 169 194 209 212 215 213 225 181 191 218 222 203 194 192 194 182 226 134 231 239 228 240 242 238 239 241 237
215 203 196 189 167 157 160 184 173 160 164 156 149 167 175 162 155 165 190 200 202 198 190 187 238 131 181 193 212 197 206 171 103 351 76 199 274 303 274 273 260 257 248 243 240
189 176 193 180 161 155 173 167 139 140 132 139 143 180 168 173 159 181 177 198 201 202 114 261 281 190 213 192 227 224 187 192 177 168 231 245 261 236 209 223 241 237 226 235 245
171 172 185 167 159 161 177 154 131 167 127 148 133 127 177 176 184 180 186 203 198 197 184 120 138 286 132 199 209 210 209 224 192 168 198 229 249 198 201 221 224 244 229 221 222
165 193 160 160 156 168 172 152 128 130 88 109 96 88 144 167 173 174 179 184 189 142 187 185 179 248 233 250 302 228 223 213 227 202 231 237 258 201 216 235 334 292 293 217 221
180 188 161 151 164 163 128 123 118 138 144 133 113 123 121 154 177 173 167 166 158 172 180 174 202 226 285 242 222 241 238 225 206 223 208 205 250 190 253 267 236 248 258 223 198
150 152 143 151 168 143 128 142 136 93 82 92 109 119 109 156 19 178 172 208 164 191 159 168 204 215 228 235 160 213 230 226 209 218 225 223 250 228 205 234 274 241 247 228 200
135 129 96 145 138 132 130 148 146 137 90 133 67 154 142 145 114 144 155 134 128 181 199 174 231 210 244 258 205 209 216 230 217 217 217 233 230 236 250 237 233 224 186 185 181
119 138 82 106 139 133 136 160 147 110 124 130 128 149 127 136 157 152 138 158 160 124 146 100 310 242 246 236 235 242 225 236 266 224 230 250 259 233 218 246 208 216 175 187 194
21 60 120 144 151 138 172 152 141 122 32 104 133 113 88 160 136 155 162 152 163 154 155 157 102 323 292 251 237 242 234 225 236 254 227 235 237 143 207 219 226 207 207 197 192